User: anonymous   Login
Location: Rochester
(43.1610°N, 77.6109°W)
Time: 05:14:17
(UTC-05:00)
Language:

CUTE 1.7 + AOD 2 - Orbit

View from above orbital plane
View from above orbital plane
View from above satellite
View from above satellite

Ground track
Ground track

The orbit data is extracted from the following two-line orbital elements,

1 32785U 08021C   22332.03476462  .00001715  00000-0  18187-3 0  9992
2 32785  97.6805 297.9541 0014053  55.3769 304.8772 14.90282416790843
Epoch (UTC): 28 November 2022 00:50:03
Eccentricity: 0.0014053
inclination: 97.6805°
perigee height: 587 km
apogee height: 607 km
right ascension of ascending node: 297.9541°
argument of perigee: 55.3769°
revolutions per day: 14.90282416
mean anomaly at epoch: 304.8772°
orbit number at epoch: 79084

The dashed part of the orbit path shows where the satellite is in the earth's shadow,  

DLR